Date String (YYYY-MM-DD hh:mm:ss) UTC,Instrument flags,Ambient pressure (hPa),Sample flow (lpm),Bypass flow (lpm),Sample temperature (°C),Ambient temperature (°C),ASC tube jacket temperature (°C),LED temperature (°C),Box temperature (°C),Sample RH (%),Span deviation,Mass concentration (μg/m³),Mass concentration (μg/m³),Mass concentration (μg/m³)
DateTimeUTC,F1_M11,P_M11,Q1_M11,Q2_M11,T1_M11,T2_M11,T3_M11,T4_M11,T5_M11,U1_M11,ZSPAN_M11,X0_M11,X2_M11,X1_M11
2021-11-14 14:00:00,,0829.0,5.01,0.00,22.7,22.0,00.0,31.7,24.6,12.9,0000.0,0009.47,0002.29,0000.91
2021-11-14 14:01:00,,0829.3,5.00,0.00,22.8,22.0,00.0,31.7,24.6,12.9,0000.0,0009.36,0002.27,0000.92
2021-11-14 14:02:00,,0829.2,5.01,0.00,22.8,22.0,00.0,31.7,24.6,13.0,0000.0,0009.26,0002.24,0000.93
2021-11-14 14:03:00,,0829.1,4.99,0.00,22.8,22.0,00.0,31.7,24.6,13.0,0000.0,0009.12,0002.20,0000.95
2021-11-14 14:04:00,,0829.1,5.01,0.00,22.8,22.0,00.0,31.7,24.6,13.1,0000.0,0009.12,0002.23,0000.97
2021-11-14 14:05:00,,0829.2,4.99,0.00,22.8,22.0,00.0,31.7,24.6,13.1,0000.0,0009.54,0002.17,0000.98
2021-11-14 14:06:00,,0829.0,5.00,0.00,22.8,22.0,00.0,31.7,24.6,13.2,0000.0,0010.08,0002.16,0000.98
2021-11-14 14:07:00,,0829.0,4.99,0.00,22.8,22.0,00.0,31.7,24.6,13.1,0000.0,0010.26,0002.18,0000.99
2021-11-14 14:08:00,,0829.0,5.01,0.00,22.8,22.0,00.0,31.7,24.6,13.0,0000.0,0010.07,0002.16,0000.98
2021-11-14 14:09:00,,0829.1,4.99,0.00,22.8,22.0,00.0,31.7,24.6,13.0,0000.0,0011.23,0002.20,0000.98
2021-11-14 14:10:00,,0829.0,5.00,0.00,22.8,22.0,00.0,31.8,24.6,13.0,0000.0,0011.95,0002.23,0000.98
2021-11-14 14:11:00,,0829.0,4.99,0.00,22.8,22.0,00.0,31.8,24.6,13.0,0000.0,0012.41,0002.31,0000.97
2021-11-14 14:12:00,,0828.9,5.02,0.00,22.8,22.0,00.0,31.8,24.6,13.0,0000.0,0012.61,0002.37,0000.96
2021-11-14 14:13:00,,0829.0,4.99,0.00,22.8,22.0,00.0,31.8,24.6,13.0,0000.0,0012.66,0002.35,0000.95
2021-11-14 14:14:00,,0829.1,5.01,0.00,22.8,22.0,00.0,31.8,24.6,13.0,0000.0,0012.73,0002.36,0000.94
2021-11-14 14:15:00,,0829.2,5.00,0.00,22.8,22.0,00.0,31.8,24.6,13.0,0000.0,0012.53,0002.45,0000.94
2021-11-14 14:16:00,,0829.2,4.99,0.00,22.8,22.0,00.0,31.8,24.6,13.0,0000.0,0011.66,0002.47,0000.94
2021-11-14 14:17:00,,0829.0,5.00,0.00,22.8,22.0,00.0,31.8,24.6,13.0,0000.0,0010.56,0002.56,0000.93
2021-11-14 14:18:00,,0829.1,5.01,0.00,22.8,22.0,00.0,31.8,24.6,12.9,0000.0,0010.37,0002.62,0000.93
2021-11-14 14:19:00,,0828.9,4.99,0.00,22.8,22.0,00.0,31.8,24.6,12.9,0000.0,0010.24,0002.65,0000.93
2021-11-14 14:20:00,,0829.0,5.00,0.00,22.8,22.0,00.0,31.8,24.6,12.7,0000.0,0009.57,0002.72,0000.92
2021-11-14 14:21:00,,0829.2,5.00,0.00,22.8,22.0,00.0,31.8,24.6,12.8,0000.0,0008.44,0002.72,0000.92
2021-11-14 14:22:00,,0829.3,4.99,0.00,22.8,22.0,00.0,31.8,24.6,12.8,0000.0,0008.25,0002.74,0000.92
2021-11-14 14:23:00,,0829.2,5.00,0.00,22.8,22.0,00.0,31.8,24.6,12.9,0000.0,0008.64,0002.80,0000.92
2021-11-14 14:24:00,,0829.2,5.01,0.00,22.8,22.0,00.0,31.8,24.6,12.7,0000.0,0009.12,0002.85,0000.90
2021-11-14 14:25:00,,0829.4,4.99,0.00,22.8,22.0,00.0,31.8,24.6,12.7,0000.0,0009.72,0002.87,0000.89
2021-11-14 14:26:00,,0829.5,5.00,0.00,22.8,22.0,00.0,31.8,24.6,12.7,0000.0,0010.32,0002.85,0000.87
2021-11-14 14:27:00,,0829.3,5.00,0.00,22.8,22.0,00.0,31.8,24.6,12.8,0000.0,0010.20,0002.81,0000.86
2021-11-14 14:28:00,,0829.3,4.99,0.00,22.8,22.0,00.0,31.8,24.6,12.8,0000.0,0010.24,0002.65,0000.86
2021-11-14 14:29:00,,0829.3,5.00,0.00,22.8,22.0,00.0,31.8,24.6,12.7,0000.0,0010.90,0002.64,0000.85
2021-11-14 14:30:00,,0829.3,5.01,0.00,22.8,22.0,00.0,31.8,24.6,12.6,0000.0,0010.97,0002.64,0000.85
2021-11-14 14:31:00,,0829.3,4.99,0.00,22.8,22.0,00.0,31.8,24.6,12.6,0000.0,0011.16,0002.58,0000.85
2021-11-14 14:32:00,,0829.4,5.01,0.00,22.8,22.0,00.0,31.8,24.6,12.6,0000.0,0011.20,0002.55,0000.84
2021-11-14 14:33:00,,0829.4,5.00,0.00,22.8,22.0,00.0,31.8,24.6,12.6,0000.0,0010.97,0002.53,0000.83
2021-11-14 14:34:00,,0829.2,5.01,0.00,22.8,22.0,00.0,31.8,24.6,12.6,0000.0,0010.75,0002.47,0000.83
2021-11-14 14:35:00,,0829.2,4.99,0.00,22.8,22.0,00.0,31.8,24.6,12.6,0000.0,0010.56,0002.50,0000.83
2021-11-14 14:36:00,,0829.3,5.01,0.00,22.8,22.0,00.0,31.8,24.6,12.6,0000.0,0010.25,0002.42,0000.82
2021-11-14 14:37:00,,0829.5,4.99,0.00,22.8,22.0,00.0,31.8,24.6,12.6,0000.0,0009.68,0002.33,0000.82
2021-11-14 14:38:00,,0829.4,5.01,0.00,22.8,22.0,00.0,31.8,24.6,12.6,0000.0,0009.79,0002.33,0000.82
2021-11-14 14:39:00,,0829.5,5.00,0.00,22.8,22.0,00.0,31.8,24.6,12.7,0000.0,0009.67,0002.37,0000.82
2021-11-14 14:40:00,,0829.4,5.00,0.00,22.8,22.0,00.0,31.8,24.6,12.7,0000.0,0008.79,0002.40,0000.83
2021-11-14 14:41:00,,0829.2,5.01,0.00,22.8,22.0,00.0,31.8,24.6,12.6,0000.0,0008.63,0002.41,0000.84
2021-11-14 14:42:00,,0829.3,5.01,0.00,22.8,22.0,00.0,31.8,24.6,12.5,0000.0,0008.35,0002.41,0000.84
2021-11-14 14:43:00,,0829.3,5.00,0.00,22.8,22.0,00.0,31.8,24.6,12.5,0000.0,0008.53,0002.39,0000.85
2021-11-14 14:44:00,,0829.3,5.00,0.00,22.8,22.0,00.0,31.8,24.6,12.5,0000.0,0009.17,0002.31,0000.86
2021-11-14 14:45:00,,0829.3,5.00,0.00,22.8,22.0,00.0,31.8,24.6,12.7,0000.0,0008.83,0002.25,0000.87
2021-11-14 14:46:00,,0829.3,5.01,0.00,22.8,22.0,00.0,31.8,24.6,12.7,0000.0,0008.47,0002.18,0000.89
2021-11-14 14:47:00,,0829.2,5.01,0.00,22.8,22.0,00.0,31.8,24.6,12.6,0000.0,0007.95,0002.23,0000.90
2021-11-14 14:48:00,,0829.2,4.99,0.00,22.8,22.0,00.0,31.8,24.6,12.7,0000.0,0007.51,0002.25,0000.90
2021-11-14 14:49:00,,0829.3,5.00,0.00,22.8,22.1,00.0,31.8,24.7,12.7,0000.0,0007.42,0002.22,0000.91
2021-11-14 14:50:00,,0829.2,5.01,0.00,22.8,22.1,00.0,31.8,24.7,12.6,0000.0,0007.23,0002.21,0000.92
2021-11-14 14:51:00,,0829.3,4.99,0.00,22.9,22.1,00.0,31.8,24.7,12.5,0000.0,0007.40,0002.18,0000.91
2021-11-14 14:52:00,,0829.2,5.01,0.00,22.9,22.1,00.0,31.8,24.7,12.4,0000.0,0007.54,0002.16,0000.90
2021-11-14 14:53:00,,0829.2,4.99,0.00,22.9,22.1,00.0,31.9,24.7,12.4,0000.0,0007.49,0002.14,0000.91
2021-11-14 14:54:00,,0829.3,5.00,0.00,22.9,22.1,00.0,31.9,24.7,12.4,0000.0,0007.58,0002.15,0000.90
2021-11-14 14:55:00,,0829.5,5.00,0.00,22.9,22.1,00.0,31.9,24.7,12.5,0000.0,0006.74,0002.20,0000.90
2021-11-14 14:56:00,,0829.5,5.00,0.00,22.9,22.1,00.0,31.9,24.8,12.5,0000.0,0007.34,0002.20,0000.90
2021-11-14 14:57:00,,0829.4,4.99,0.00,22.9,22.2,00.0,31.9,24.8,12.6,0000.0,0007.75,0002.20,0000.90
2021-11-14 14:58:00,,0829.2,5.00,0.00,22.9,22.2,00.0,31.9,24.8,12.6,0000.0,0008.36,0002.18,0000.91
2021-11-14 14:59:00,,0829.3,5.00,0.00,22.9,22.2,00.0,31.9,24.8,12.6,0000.0,0008.40,0002.16,0000.91
